ギブス彗星

P/2009 K1 ( Gibbs )

English version
Home page
Updated on March 17, 2010

---------------------------------------------------------------------

・ プロフィール

発見日 2009年5月16日
発見光度 18.7等
発見者 A. R. Gibbs (Mt. Lemmon)

・ 写真集

・ 軌道要素

Epoch 2009 June 18.0 TT = JDT 2455000.5
T 2009 June 25.90699 TT                                 MPC
q   1.3230493            (2000.0)            P               Q
n   0.13988907     Peri.   27.05610     -0.94032821     +0.34003655
a   3.6751934      Node   172.78878     -0.32749855     -0.89439512
e   0.6400055      Incl.    5.74683     -0.09234474     -0.29057273
P   7.05

・ 光度変化

        m1 = 9.5 + 5 logΔ + 40 log r(t - 40)

---------------------------------------------------------------------

軌道要素はM.P.E.C. 2009-P10に掲載されたものです。
光度グラフはComet for Windowsで作成したものです。

---------------------------------------------------------------------

Copyright(C) Seiichi Yoshida (comet@aerith.net). All rights reserved.